Tracking 32139 objects as of 18-Nov-2025
HD Live streaming from Space Station
objects crossing your sky now

GEESAT 5-08

Track GEESAT 5-08 now!
10-day predictions
GEESAT 5-08 is classified as:


NORAD ID: 65557
Int'l Code: 2025-201H
Perigee: 594.4 km
Apogee: 606.1 km
Inclination: 50.0 °
Period: 96.5 minutes
Semi major axis: 6971 km
RCS: Unknown
Launch date: September 8, 2025
Source: People's Republic of China (PRC)
Launch site: Yellow Sea Launch Area, China (YSLA)
Your satellite tracking list
Your tracking list is empty




NASA's NSSDC Master Catalog

Two Line Element Set (TLE):
1 65557U 25201H   25321.80858735  .00005451  00000-0  56127-3 0  9994
2 65557  49.9818 296.7117 0008379 212.0474 147.9959 14.91536136 10452
Source of the keplerian elements: AFSPC